Tracking 30143 objects as of 20-Jan-2025
HD Live streaming from Space Station
objects crossing your sky now

ARIANE 5 DEB (SYLDA)

Track ARIANE 5 DEB (SYLDA) now!
10-day predictions


NORAD ID: 43273
Int'l Code: 2018-033C
Perigee: 362.3 km
Apogee: 17,250.1 km
Inclination: 2.8 °
Period: 310.1 minutes
Semi major axis: 15177 km
RCS: Unknown
Launch date: April 5, 2018
Source: France (FR)
Launch site: FRENCH GUIANA (FRGUI)

Note: This is SATELLITE DEBRIS
Your satellite tracking list
Your tracking list is empty




NASA's NSSDC Master Catalog

Two Line Element Set (TLE):
1 43273U 18033C   25019.73721290  .00012909  00000-0  60316-2 0  9991
2 43273   2.7768  39.2724 5563526  51.5970 346.5783  4.64315935 85107
Source of the keplerian elements: AFSPC